Fort Morgan, CO

4:47 PM MST on November 20, 2017 (GMT -0700)
Fort Morgan

Weather History for KFMM - November, 2012

Change the Weather History Date:

Sunday, November 11, 2012

  Actual Average (KAKO) Record (KAKO)
Temperature  
Mean Temperature 18 °F -  
Max Temperature 27 °F 50 °F 75 °F (1973)
Min Temperature 9 °F 27 °F -3 °F (1940)
Degree Days  
Heating Degree Days 47    
Moisture  
Dew Point 11 °F    
Average Humidity 78    
Maximum Humidity 94    
Minimum Humidity 59    
Precipitation  
Precipitation 0.00 in - - ()
Sea Level Pressure  
Sea Level Pressure 30.02 in    
Wind  
Wind Speed 5 mph ()    
Max Wind Speed 9 mph    
Max Gust Speed -    
Visibility 10.0 miles    
Events      
Averages and records for this station are not official NWS values.
T = Trace of Precipitation, MM = Missing Value Source: Averaged Metar Reports

Daily Weather History Graph

Daily Weather History Graph

Search for Another Location

Airport or City:

Trip Planner

Search our weather history database for the weather conditions in past years. The results will help you decide how hot, cold, wet, or windy it might be!

Date:

Astronomy

Nov. 11, 2012 Rise Set
Actual Time 6:37 AM MST 4:41 PM MST
Civil Twilight 6:08 AM MST 5:09 PM MST
Nautical Twilight 5:35 AM MST 5:42 PM MST
Astronomical Twilight 5:03 AM MST 6:14 PM MST
Moon 3:53 AM MST (11/11) 3:06 PM MST (11/11)
Length of Visible Light 11h 01m
Length of Day
10h 03m
Waning Crescent, 7% of the Moon is Illuminated
Nov 11
Waning Crescent
Nov 13
New
Nov 20
First Quarter
Nov 28
Full
Dec 6
Last Quarter

Hourly Weather History & Observations

Time (MST) Temp. Windchill Dew Point Humidity Pressure Visibility Wind Dir Wind Speed Gust Speed Precip Events Conditions
12:15 AM 18.0 °F 6.9 °F 13.8 °F 84% 29.87 in - NW 9.2 mph - N/A   Overcast
12:35 AM 18.3 °F 7.3 °F 13.1 °F 80% 29.87 in - NW 9.2 mph - N/A   Overcast
12:55 AM 17.6 °F 7.3 °F 11.8 °F 78% 29.87 in - NNW 8.1 mph - N/A   Mostly Cloudy
1:15 AM 16.7 °F 8.3 °F 11.1 °F 79% 29.88 in - NNW 5.8 mph - N/A   Mostly Cloudy
1:35 AM 15.4 °F 5.6 °F 10.2 °F 80% 29.88 in - North 6.9 mph - N/A   Scattered Clouds
1:55 AM 13.6 °F 4.6 °F 9.1 °F 82% 29.90 in - NNW 5.8 mph - N/A   Clear
2:15 AM 14.0 °F 6.5 °F 9.3 °F 82% 29.91 in - NW 4.6 mph - N/A   Clear
2:35 AM 12.2 °F 0.7 °F 8.1 °F 83% 29.92 in - North 8.1 mph - N/A   Unknown
2:55 AM 12.2 °F 0.7 °F 7.7 °F 82% 29.92 in - NNW 8.1 mph - N/A   Unknown
3:15 AM 11.3 °F -1.3 °F 7.2 °F 83% 29.92 in - NW 9.2 mph - N/A   Unknown
3:35 AM 10.8 °F -1.1 °F 6.6 °F 83% 29.92 in - NNW 8.1 mph - N/A   Scattered Clouds
3:55 AM 10.9 °F 1.4 °F 6.4 °F 82% 29.92 in - NNW 5.8 mph - N/A   Mostly Cloudy
4:15 AM 10.4 °F - 6.1 °F 83% 29.92 in 10.0 mi Calm Calm - N/A   Scattered Clouds
4:35 AM 11.8 °F - 7.2 °F 81% 29.92 in 10.0 mi Calm Calm - N/A   Mostly Cloudy
5:15 AM 14.7 °F 3.8 °F 8.6 °F 77% 29.92 in 10.0 mi NNE 8.1 mph - N/A   Overcast
5:55 AM 12.0 °F 5.9 °F 7.3 °F 81% 29.94 in 10.0 mi SSE 3.5 mph - N/A   Scattered Clouds
6:15 AM 12.2 °F 6.1 °F 7.3 °F 81% 29.94 in 10.0 mi South 3.5 mph - N/A   Clear
6:35 AM 10.9 °F - 6.8 °F 83% 29.95 in 10.0 mi Calm Calm - N/A   Clear
6:55 AM 9.5 °F 3.0 °F 5.9 °F 85% 29.96 in 10.0 mi West 3.5 mph - N/A   Clear
7:15 AM 9.7 °F 1.4 °F 5.7 °F 84% 29.96 in 10.0 mi West 4.6 mph - N/A   Clear
7:55 AM 11.7 °F 3.7 °F 6.6 °F 80% 29.99 in 10.0 mi West 4.6 mph - N/A   Clear
8:35 AM 16.5 °F 11.0 °F 8.6 °F 71% 30.00 in 10.0 mi WNW 3.5 mph - N/A   Clear
8:55 AM 17.2 °F 11.9 °F 9.0 °F 70% 30.00 in 10.0 mi West 3.5 mph - N/A   Clear
9:15 AM 18.5 °F 13.3 °F 9.3 °F 67% 30.01 in 10.0 mi West 3.5 mph - N/A   Clear
9:35 AM 19.6 °F - 9.9 °F 66% 30.01 in 10.0 mi Calm Calm - N/A   Clear
9:55 AM 19.8 °F 11.9 °F 10.2 °F 67% 30.01 in 10.0 mi West 5.8 mph - N/A   Clear
10:15 AM 20.3 °F 12.5 °F 11.1 °F 68% 30.02 in 10.0 mi West 5.8 mph - N/A   Clear
10:35 AM 20.8 °F 13.2 °F 11.8 °F 68% 30.02 in 10.0 mi West 5.8 mph - N/A   Clear
10:55 AM 21.2 °F 14.9 °F 10.6 °F 64% 30.01 in 10.0 mi WSW 4.6 mph - N/A   Clear
11:15 AM 21.9 °F 15.7 °F 11.5 °F 64% 30.01 in 10.0 mi WSW 4.6 mph - N/A   Clear
11:35 AM 22.1 °F 13.7 °F 12.6 °F 67% 30.01 in 10.0 mi WSW 6.9 mph - N/A   Clear
11:55 AM 23.7 °F 17.8 °F 13.3 °F 64% 30.00 in 10.0 mi WSW 4.6 mph - N/A   Clear
12:15 PM 24.4 °F 17.5 °F 13.1 °F 62% 30.00 in 10.0 mi WSW 5.8 mph - N/A   Clear
12:35 PM 24.1 °F 17.0 °F 13.5 °F 64% 29.99 in 10.0 mi WSW 5.8 mph - N/A   Clear
12:55 PM 25.3 °F - 13.6 °F 61% 29.99 in 10.0 mi Calm Calm - N/A   Clear
1:15 PM 26.6 °F 22.6 °F 14.2 °F 60% 29.99 in 10.0 mi SSW 3.5 mph - N/A   Clear
1:35 PM 27.1 °F - 14.4 °F 59% 29.99 in 10.0 mi Calm Calm - N/A   Clear
1:55 PM 26.6 °F - 14.9 °F 61% 30.01 in 10.0 mi Calm Calm - N/A   Clear
2:15 PM 25.5 °F - 15.3 °F 65% 30.01 in 10.0 mi Calm Calm - N/A   Clear
2:35 PM 25.3 °F - 15.4 °F 66% 30.01 in 10.0 mi Calm Calm - N/A   Clear
2:55 PM 24.6 °F - 15.4 °F 68% 30.02 in 10.0 mi Calm Calm - N/A   Clear
3:15 PM 24.3 °F 19.9 °F 15.4 °F 69% 30.02 in 10.0 mi NNE 3.5 mph - N/A   Clear
3:35 PM 23.2 °F - 15.3 °F 72% 30.03 in 10.0 mi Calm Calm - N/A   Clear
3:55 PM 21.9 °F - 14.9 °F 74% 30.03 in 10.0 mi Calm Calm - N/A   Clear
4:15 PM 19.6 °F - 13.6 °F 78% 30.05 in 10.0 mi Calm Calm - N/A   Clear
4:35 PM 19.2 °F - 14.4 °F 81% 30.06 in 10.0 mi Calm Calm - N/A   Clear
4:55 PM 15.8 °F 10.2 °F 12.0 °F 85% 30.07 in 10.0 mi NNE 3.5 mph - N/A   Clear
5:15 PM 16.5 °F - 13.6 °F 88% 30.07 in 10.0 mi Calm Calm - N/A   Clear
5:35 PM 14.4 °F 8.6 °F 9.9 °F 82% 30.09 in 10.0 mi NNW 3.5 mph - N/A   Clear
5:55 PM 17.6 °F 12.3 °F 13.6 °F 84% 30.09 in 10.0 mi WSW 3.5 mph - N/A   Clear
6:15 PM 16.0 °F - 12.4 °F 86% 30.11 in 10.0 mi Calm Calm - N/A   Clear
6:35 PM 10.9 °F - 6.3 °F 81% 30.11 in 10.0 mi Calm Calm - N/A   Clear
6:55 PM 12.7 °F 5.0 °F 8.8 °F 84% 30.12 in 10.0 mi SSW 4.6 mph - N/A   Clear
7:15 PM 13.3 °F 7.3 °F 10.4 °F 88% 30.12 in 10.0 mi SW 3.5 mph - N/A   Clear
7:35 PM 13.8 °F 6.2 °F 11.3 °F 90% 30.13 in 10.0 mi SW 4.6 mph - N/A   Clear
7:55 PM 15.3 °F 7.9 °F 12.7 °F 90% 30.14 in 10.0 mi WSW 4.6 mph - N/A   Clear
8:15 PM 14.0 °F 6.5 °F 12.2 °F 93% 30.14 in 10.0 mi WSW 4.6 mph - N/A   Clear
8:35 PM 12.7 °F 6.7 °F 11.1 °F 93% 30.15 in 10.0 mi West 3.5 mph - N/A   Clear
8:55 PM 11.3 °F 3.3 °F 9.9 °F 94% 30.15 in 10.0 mi WSW 4.6 mph - N/A   Clear
9:15 PM 9.0 °F -2.2 °F 7.3 °F 93% 30.16 in 10.0 mi West 6.9 mph - N/A   Clear
9:35 PM 11.7 °F 0.0 °F 9.3 °F 90% 30.16 in 10.0 mi WNW 8.1 mph - N/A   Clear
10:15 PM 10.8 °F 0.0 °F 7.0 °F 85% 30.16 in 10.0 mi West 6.9 mph - N/A   Clear
10:35 PM 12.9 °F 1.6 °F 8.8 °F 84% 30.17 in 10.0 mi WNW 8.1 mph - N/A   Clear
11:15 PM 14.5 °F 5.7 °F 8.2 °F 76% 30.18 in 10.0 mi West 5.8 mph - N/A   Clear
11:35 PM 12.4 °F 4.6 °F 7.0 °F 79% 30.19 in 10.0 mi WSW 4.6 mph - N/A   Clear
11:55 PM 10.0 °F 1.8 °F 5.7 °F 83% 30.19 in 10.0 mi West 4.6 mph - N/A   Clear